Location: Unspecified
(0.0000°N, 0.0000°E)
Time: 16:02:31
(UTC+02:00)

SWIFT - Visible Passes

Search period start: 29 August 2014 00:00
Search period end: 08 September 2014 00:00
Orbit: 561 x 578 km, 20.6° (Epoch: 24 August)

Date Brightness Start Highest point End Pass type
(mag) Time Alt. Az. Time Alt. Az. Time Alt. Az.
29 Aug 3.8 06:44:19 22° SSW 06:46:00 29° SSE 06:49:45 10° E visible
29 Aug 2.8 20:23:46 10° W 20:28:03 58° SSW 20:32:20 10° ESE visible
29 Aug 5.0 22:07:35 10° WSW 22:08:45 14° SW 22:08:45 14° SW visible
30 Aug 3.2 06:43:53 30° SSW 06:45:25 42° SSE 06:49:29 10° E visible
30 Aug 3.5 20:23:22 10° W 20:27:27 39° SSW 20:31:31 10° SE visible
30 Aug 5.2 22:08:00 10° SW 22:08:19 11° SW 22:08:19 11° SW visible
31 Aug 2.5 06:43:28 40° SW 06:44:49 65° SSE 06:49:03 10° ENE visible
31 Aug 4.0 20:23:08 10° W 20:26:51 27° SSW 20:30:34 10° SE visible
01 Sep 2.2 06:43:02 47° WSW 06:44:12 83° NNW 06:48:28 10° ENE visible
01 Sep 4.5 20:23:06 10° WSW 20:26:17 20° SSW 20:29:29 10° SSE visible
02 Sep 2.6 06:42:37 43° WNW 06:43:35 54° NNW 06:47:45 10° NE visible
02 Sep 4.8 20:23:20 10° SW 20:25:46 14° SSW 20:28:11 10° SSE visible
03 Sep 3.2 06:42:10 33° NW 06:42:58 36° NNW 06:46:54 10° NE visible
03 Sep 5.0 20:24:12 10° SSW 20:25:16 11° SSW 20:26:21 10° S visible
04 Sep 3.7 06:41:43 24° NW 06:42:22 25° NNW 06:45:55 10° NE visible
05 Sep 4.2 06:41:13 18° NNW 06:41:48 18° NNW 06:44:46 10° NNE visible
06 Sep 4.5 06:40:42 13° NNW 06:41:16 13° NNW 06:43:22 10° NNE visible
